www.pogodaiklimat.ru

Погода и климат >> Архив погоды >> Пакистан >> Суккур


ПОГОДА в Суккуре

  • Прогноз погоды в Суккуре
  • Монитор погоды в Суккуре

АРХИВ ПОГОДЫ в Суккуре

Время (UTC), дата Ветер
(напр.,м/с)
 
Видим.   Явления Облачность Т
(С)
Тd
(С)
f
(%)
Тe
(С)
Тes
(С)
Комфортность P
(гПа)
Po
(гПа)
Тmin
(С)
Tmax
(С)
R
(мм)
R24
(мм)
S
(см)
15 15.07 Ю 2 4000 м мгла ясно +38.0 +27.2 54 +56 +56 опасность
перегрева
992.7 986.5
18 15.07 Ю 3 4000 м мгла ясно +36.0 +26.4 58 +53 +53 опасность
перегрева
994.0 987.8
21 15.07 Ю 5 4000 м мгла ясно +33.0 +25.3 64 +47 +47 опасность
перегрева
993.5 987.2
00 16.07 Ю 5 4000 м мгла ясно +30.0 +24.3 72 +42 +42 опасность
перегрева
993.2 985.8
03 16.07 ЮВ 5 4000 м мгла 9/3 1200 м
[Sc Ac trans]
+30.0 +24.3 72 +42 +43 опасность
перегрева
995.6 988.1 +29.5
06 16.07 ЮВ 5 4000 м мгла 9/3 1200 м
[Sc Ac trans]
+37.0 +24.6 49 +49 +53 опасность
перегрева
997.8 991.6
09 16.07 ЮВ 4 4000 м мгла 9/0
[Ac trans Ci fib]
+37.0 +24.4 49 +49 +58 опасность
перегрева
996.7 990.5
12 16.07 штиль 0 4000 м мгла 6/0
[Ci fib]
+39.0 +26.8 50 +55 +61 опасность
перегрева
995.7 988.4 +39.5
15 16.07 штиль 0 4000 м мгла ясно +37.0 +27.6 59 +56 +56 опасность
перегрева
996.6 990.4
18 16.07 ЮВ 5 4000 м мгла ясно +34.0 +24.9 59 +47 +47 опасность
перегрева
997.9 991.6
21 16.07 ЮВ 5 4000 м мгла ясно +33.0 +24.6 61 +46 +46 опасность
перегрева
997.1 990.8
00 17.07 ЮВ 5 4000 м мгла ясно +33.0 +24.6 61 +46 +46 опасность
перегрева
997.1 990.8
06 17.07 ЮВ 5 4000 м мгла 6/0
[Ac trans]
+35.0 +23.7 52 +46 +52 опасность
перегрева
1001.4 995.1
09 17.07 ЮВ 3 4000 м мгла 4/0
[Ac trans]
+38.0 +25.2 48 +51 +63 опасность
перегрева
999.5 993.3
12 17.07 ЮВ 5 4000 м мгла ясно +40.5 +25.4 43 +54 +56 опасность
перегрева
997.1 989.8 +41.5
15 17.07 штиль 0 4000 м мгла 3/0
[Ac trans]
+39.0 +26.8 50 +55 +55 опасность
перегрева
997.0 990.8
18 17.07 ЮВ 5 4000 м мгла 8/3 1200 м
[Sc Ac trans]
+35.0 +26.8 63 +53 +53 опасность
перегрева
998.9 992.6
21 17.07 ЮВ 4 4000 м мгла 8/3 1200 м
[Sc Ac trans]
+32.0 +25.8 70 +47 +47 опасность
перегрева
997.7 991.4
00 18.07 ЮВ 4 4000 м мгла 9/3 1200 м
[Sc Ac trans]
+30.0 +24.3 72 +42 +42 опасность
перегрева
997.4 989.8
03 18.07 ЮВ 3 4000 м мгла 9/4 1200 м
[Sc Ac trans]
+30.0 +24.3 72 +42 +44 опасность
перегрева
1000.6 993.0 +29.5
06 18.07 ЮВ 2 4000 м мгла 5/0 1000 м
[Ac trans]
+35.0 +23.7 52 +46 +60 опасность
перегрева
1001.1 994.8
09 18.07 Ю 3 4000 м мгла 5/0
[Ac trans]
+40.0 +24.8 42 +52 +63 опасность
перегрева
998.9 992.7
12 18.07 Ю 5 4000 м мгла ясно +40.0 +24.8 42 +52 +54 опасность
перегрева
997.1 989.8 +41.5
15 18.07 Ю 2 4000 м мгла ясно +38.0 +25.6 49 +52 +52 опасность
перегрева
997.1 990.9
18 18.07 Ю 1 4000 м мгла ясно +35.0 +26.8 63 +53 +53 опасность
перегрева
998.1 991.8
21 18.07 Ю 3 4000 м мгла ясно +32.0 +25.8 70 +47 +47 опасность
перегрева
997.4 991.1
00 19.07 Ю 3 4000 м мгла ясно +30.0 +24.3 72 +42 +42 опасность
перегрева
997.2 989.8
03 19.07 Ю 3 4000 м мгла ясно +32.0 +25.0 67 +46 +50 опасность
перегрева
1000.7 993.3 +29.5
06 19.07 ЮВ 5 4000 м мгла ясно +36.0 +24.8 53 +49 +59 опасность
перегрева
1002.0 995.7
09 19.07 ЮВ 3 4000 м мгла ясно +39.0 +25.2 46 +52 +68 опасность
перегрева
1000.7 994.5
12 19.07 ЮВ 3 4000 м мгла ясно +40.0 +24.8 42 +52 +56 опасность
перегрева
1000.7 990.9 +40.5
15 19.07 Ю 2 4000 м мгла ясно +37.5 +24.2 47 +49 +49 опасность
перегрева
998.7 992.5
18 19.07 Ю 3 4000 м мгла ясно +34.0 +24.1 56 +46 +46 опасность
перегрева
1000.9 994.6
21 19.07 ЮВ 2 4000 м мгла ясно +32.0 +23.4 60 +43 +43 опасность
перегрева
1000.4 994.0
00 20.07 ЮВ 2 4000 м мгла ясно +30.0 +24.3 72 +42 +42 опасность
перегрева
1000.4 994.0
03 20.07 СВ 2 4000 м мгла 8/3 1200 м
[Sc Ac trans]
+32.0 +25.0 67 +46 +48 опасность
перегрева
1002.9 995.4 +29.5
06 20.07 ЮВ 3 4000 м мгла 4/0
[Ac trans]
+38.0 +23.1 43 +48 +60 опасность
перегрева
1003.2 996.9
09 20.07 ЮВ 2 4000 м мгла ясно +42.0 +22.1 32 +49 +68 опасность
перегрева
1001.7 995.5
12 20.07 Ю 5 4000 м мгла ясно +41.0 +22.6 35 +49 +52 опасность
перегрева
999.2 991.8 +43.5
15 20.07 СВ 5 4000 м мгла ясно +36.5 +24.6 51 +49 +49 опасность
перегрева
1000.3 994.0
18 20.07 В 3 4000 м мгла ясно +34.0 +24.9 59 +47 +47 опасность
перегрева
1000.7 994.4
21 20.07 ЮВ 2 4000 м мгла ясно +33.0 +24.6 61 +46 +46 опасность
перегрева
1000.7 994.4
03 21.07 В 4 4000 м мгла ясно +33.0 +24.6 61 +46 +49 опасность
перегрева
1001.7 994.2 +30.5
06 21.07 СВ 4 4000 м мгла ясно +39.0 +23.5 41 +49 +62 опасность
перегрева
1002.1 995.9
09 21.07 СВ 2 4000 м мгла 4/4 1200 м
[Sc]
+42.0 +23.9 36 +52 +63 опасность
перегрева
1000.1 993.9
12 21.07 ЮЗ 2 4000 м мгла 4/0
[Ac trans]
+44.0 +24.8 34 +55 +59 опасность
перегрева
997.9 990.7 +44.5
15 21.07 В 2 4000 м мгла 4/0
[Ac trans]
+38.0 +25.6 49 +52 +52 опасность
перегрева
997.9 991.7
18 21.07 ЮВ 3 4000 м мгла ясно +35.0 +24.5 55 +48 +48 опасность
перегрева
999.9 993.6
21 21.07 Ю 2 4000 м мгла ясно +33.0 +23.8 59 +45 +45 опасность
перегрева
999.4 993.1
00 22.07 штиль 0 4000 м мгла ясно +31.0 +23.9 66 +43 +43 опасность
перегрева
998.8 991.3
03 22.07 штиль 0 4000 м мгла ясно +34.0 +27.2 68 +53 +60 опасность
перегрева
1001.8 994.4 +30.5
06 22.07 штиль 0 4000 м мгла ясно +40.0 +24.8 42 +52 +78 опасность
перегрева
1000.9 994.7
09 22.07 СВ 2 4000 м мгла ясно +41.0 +24.4 39 +52 +71 опасность
перегрева
1000.9 994.7
12 22.07 СВ 2 4000 м мгла 5/3 1200 м
[Sc Ac trans]
+41.5 +25.0 40 +54 +57 опасность
перегрева
996.0 988.8 +42.5

 

Местоположение метеостанции Суккур (Пакистан): широта 27.71 долгота 68.77 высота над уровнем моря 57 м.

В архиве по умолчанию представлена погода в Суккуре за последнюю неделю. Архивные данные за месяц целиком и за предыдущие месяцы, начиная с января 2011 года, Вы можете получить, выбрав интересующий диапазон дат из раскрывающегося списка и нажав кнопку "Ввод!".


*Определитесь, кто Вы:
робот инопланетянин человек

Внимание! Время в таблицах - всемирное. Для получения местного времени необходимо прибавить поправку, которая равна 5 ч.

Смотрите также архив погоды в соседних городах и на ближайших метеорологических станциях:

Погода в Рохри (Пакистан) (14 км)
Погода в Ларкане (Пакистан) (62 км)
Погода в Джейкобабаде (Пакистан) (72 км)
Погода в Мохенджо-Даро (Пакистан) (77 км)
Погода в Пад Идан (Пакистан) (115 км)
Погода в Навабшахе (Пакистан) (167 км)
Погода в Рахим Яр Хан (Пакистан) (172 км)
Погода в Хуздаре (Пакистан) (211 км)
Погода в Ханпуре (Пакистан) (214 км)
Погода в Сиби (Пакистан) (222 км)

Пояснения к столбцам:

Ветер - указаны скорость ветра в м/с - средняя за 10 мин, порывы в срок и между сроками (в фигурных скобках) и направление, откуда дует ветер: С - северный, СВ - северо-восточный, В - восточный, ЮВ - юго-восточный, Ю - южный, ЮЗ - юго-западный, З - западный, СЗ - северо-западный.
Видимость - горизонтальная дальность видимости в метрах или километрах. При видимости от 1 до 10 км при отсутствии осадков обычно наблюдается дымка, при ухудшении видимости до 1 км и менее - туман. В сухую погоду видимость может ухудшаться дымом, пылью или мглою.
Явления - указаны атмосферные явления, наблюдавшиеся в срок или в последний час перед сроком; фигурными скобками обозначены явления, наблюдавшиеся между сроками (за 1-3 часа до срока); квадратными скобками обозначены град или гололедные отложения с указанием их диаметра в мм.
Облачность - указаны через наклонную черту общая и нижняя облачность в баллах и высота нижней границы облаков в метрах; квадратными скобками обозначены формы облаков: Ci - перистые, Cs - перисто-слоистые, Cc - перисто-кучевые, Ac - высококучевые, As - высокослоистые, Sc - слоисто-кучевые, Ns - слоисто-дождевые, Cu - кучевые, Cb - кучево-дождевые. Подробнее классификацию облаков см. в Атласе облаков (PDF).
T - Температура воздуха - температура, измеренная на высоте 2 м над землей.
Td - Температура точки росы - температура, при понижении до которой содержащийся в воздухе водяной пар достигнет насыщения.
f - Относительная влажность воздуха - влажноcть воздуха, измеренная на высоте 2 м над землей.
Te - Эффективная температура - температура, которую ощущает одетый по сезону человек в тени. Характеристика душности погоды. При расчете учитывается влияние влажности воздуха и скорости ветра на теплоощущения человека.
Tes - Эффективная температура на солнце - температура, которую ощущает человек, с поправкой на солнечный нагрев. Характеристика знойности погоды. Зависит от высоты солнца над горизонтом, облачности и скорости ветра. Ночью, в пасмурную погоду, а также при ветре 12 м/с и более поправка равна нулю.
P - Атмосферное давление - приведенное к уровню моря атмосферное давление.
Po - Атмосферное давление - измеренное на уровне метеостанции атмосферное давление.
Tmin - Минимальная температура - минимум температуры воздуха на высоте 2 м над землей.
Tmax - Максимальная температура - максимум температуры воздуха на высоте 2 м над землей.
R - Количество осадков - Количество выпавших осадков за период времени, мм. При наведении курсора мыши на число - период времени, за который выпало указанное количество осадков.
R24 - Количество осадков - Количество выпавших осадков за 24 часа, мм.
S - Снежный покров - Высота снежного покрова, см. При наведении курсора мыши на число - состояние снежного покрова и степень покрытия местности в баллах.